WB0VHB-WX Weather Reports


time (UTC)temp
C
wind
direction
speed
KPH
gust
KPH
rain 1hr
cm
rain 24hr
cm
rain mn
cm
humidity
%
barometer
mb
20260505082704 10 345 6.4 9.7 0.00 1.12 0.00 56 1007.0
20260505081825 10 329 8.0 12.9 0.00 1.12 0.00 57 1007.0
20260505080925 10 325 6.4 12.9 0.00 1.12 0.00 56 1007.0
20260505080004 10 322 8.0 14.5 0.00 1.12 0.00 56 1006.4
20260505075404 10 327 8.0 14.5 0.00 1.12 0.00 57 1007.0
20260505074504 10 335 6.4 12.9 0.00 1.12 0.00 57 1006.6
20260505073604 10 340 4.8 6.4 0.00 1.12 0.00 59 1006.4
20260505072704 10 345 6.4 12.9 0.00 1.12 0.00 58 1006.7
20260505071804 10 339 8.0 12.9 0.00 1.12 0.00 58 1006.4
20260505070904 10 316 6.4 9.7 0.00 1.12 0.00 57 1006.8
20260505070004 10 325 4.8 6.4 0.00 1.12 0.00 57 1006.4
20260505065404 10 349 3.2 6.4 0.00 1.12 0.00 56 1006.2
20260505064504 11 16 3.2 4.8 0.00 1.12 0.00 56 1005.9
20260505063604 11 341 6.4 12.9 0.00 1.12 0.00 56 1005.3
20260505062704 11 335 6.4 12.9 0.00 1.12 0.00 55 1005.2
20260505061804 11 325 6.4 9.7 0.00 1.12 0.00 55 1005.4
20260505060904 11 329 9.7 19.3 0.00 1.12 0.00 52 1005.3
20260505060004 11 329 12.9 22.5 0.00 1.12 0.00 52 1004.6
20260505055404 11 332 12.9 19.3 0.00 1.12 0.00 53 1004.1
20260505054504 12 331 12.9 19.3 0.00 1.12 0.00 51 1003.9
20260505053604 12 330 9.7 16.1 0.00 1.12 0.00 51 1004.1
20260505052724 12 336 8.0 16.1 0.00 1.12 0.00 51 1003.7
20260505051804 12 334 14.5 22.5 0.00 1.12 0.00 49 1003.3
20260505050904 12 333 14.5 22.5 0.00 1.12 0.00 48 1003.1
20260505040904 13 331 9.7 16.1 0.00 1.12 1.12 49 1003.3
20260505040005 14 333 9.7 14.5 0.00 1.12 1.12 49 1003.2
20260505035404 14 330 9.7 14.5 0.00 1.12 1.12 48 1003.3
20260505034525 15 338 8.0 14.5 0.00 1.12 1.12 48 1003.2
20260505033625 15 346 11.3 17.7 0.00 1.12 1.12 43 1003.0
20260505032704 15 338 9.7 14.5 0.00 1.12 1.12 48 1003.2
20260505031804 15 335 9.7 17.7 0.00 1.12 1.12 50 1003.3
20260505030904 15 344 8.0 14.5 0.00 1.12 1.12 49 1003.0
20260505030004 15 339 6.4 9.7 0.00 1.12 1.12 52 1002.7
20260505025404 15 348 6.4 12.9 0.00 1.12 1.12 52 1002.7
20260505024504 16 346 9.7 16.1 0.00 1.12 1.12 48 1002.4
20260505023625 16 348 11.3 16.1 0.00 1.12 1.12 47 1002.2
20260505022725 16 349 12.9 17.7 0.00 1.12 1.12 46 1002.0
20260505021804 17 346 12.9 17.7 0.00 1.12 1.12 45 1001.7
20260505020904 17 348 12.9 19.3 0.00 1.12 1.12 44 1001.4
20260505020025 17 348 14.5 22.5 0.00 1.12 1.12 43 1001.1
20260505015404 17 341 14.5 22.5 0.00 1.12 1.12 43 1001.0
20260505014525 18 333 19.3 29.0 0.00 1.12 1.12 46 1000.6
20260505013604 18 332 17.7 29.0 0.00 1.12 1.12 42 1000.4
20260505012704 18 339 12.9 24.1 0.00 1.12 1.12 45 1000.1
20260505011804 19 337 9.7 17.7 0.00 1.12 1.12 45 999.9
20260505010925 20 332 12.9 19.3 0.00 1.12 1.12 47 999.6
20260505010004 20 326 14.5 22.5 0.00 1.12 1.12 48 999.4
20260505005404 20 312 9.7 19.3 0.00 1.12 1.12 54 999.3
20260505004504 21 292 1.6 14.5 0.08 1.12 1.12 57 999.1
20260505003603 21 249 3.2 9.7 0.25 1.12 1.12 57 998.8
20260505002703 20 249 1.6 6.4 0.43 1.12 1.12 61 998.4
20260505001804 20 299 4.8 19.3 0.89 1.12 1.12 61 998.1
20260505000903 21 230 11.3 22.5 0.94 1.12 1.12 58 997.6
20260505000003 20 234 14.5 30.6 0.94 1.12 1.12 56 997.1
20260504235404 18 253 14.5 25.7 0.94 1.12 1.12 62 997.2
20260504234504 17 241 12.9 35.4 0.86 1.04 1.04 69 997.2
20260504233604 16 204 8.0 20.9 0.69 0.86 0.86 69 997.4
20260504232704 17 296 20.9 62.8 0.51 0.69 0.69 64 998.5
20260504231804 19 303 19.3 37.0 0.05 0.23 0.23 62 998.3
20260504230904 19 313 4.8 12.9 0.08 0.18 0.18 67 997.8
20260504230004 18 15 1.6 3.2 0.18 0.18 0.18 65 997.3
20260504225425 18 29 1.6 3.2 0.18 0.18 0.18 66 997.3
20260504224504 18 32 1.6 4.8 0.18 0.18 0.18 70 997.4
20260504223625 18 10 4.8 8.0 0.18 0.18 0.18 71 997.5
20260504222724 18 348 11.3 24.1 0.18 0.18 0.18 68 997.7
20260504221825 18 334 25.7 54.7 0.18 0.18 0.18 64 998.1
20260504220924 20 313 33.8 62.8 0.10 0.10 0.13 58 998.3
20260504220003 27 229 12.9 30.6 0.00 0.00 0.00 28 997.4
20260504215403 27 226 16.1 33.8 0.00 0.00 0.00 27 997.1
20260504214524 27 227 16.1 33.8 0.00 0.00 0.00 26 997.2
20260504213603 27 221 20.9 37.0 0.00 0.00 0.00 26 997.2
20260504212724 28 222 14.5 33.8 0.00 0.00 0.00 27 997.3
20260504211803 28 236 14.5 30.6 0.00 0.00 0.00 25 997.3
20260504210903 27 224 16.1 35.4 0.00 0.00 0.00 26 997.3
20260504210004 28 222 19.3 35.4 0.00 0.00 0.00 26 997.6
20260504205403 28 223 17.7 33.8 0.00 0.00 0.00 27 997.6
20260504204504 28 227 14.5 32.2 0.00 0.00 0.00 27 997.7
20260504203604 28 235 11.3 33.8 0.00 0.00 0.00 26 998.1
20260504202703 28 224 14.5 33.8 0.00 0.00 0.00 25 998.2
20260504201824 28 236 11.3 32.2 0.00 0.00 0.00 27 998.1
20260504200903 27 223 11.3 24.1 0.00 0.00 0.00 27 998.4
20260504200004 27 225 14.5 33.8 0.00 0.00 0.00 27 998.6
20260504195403 27 230 12.9 33.8 0.00 0.00 0.00 30 998.5
20260504194503 27 225 14.5 33.8 0.00 0.00 0.00 29 998.5
20260504193603 27 220 16.1 41.8 0.00 0.00 0.00 28 998.6
20260504192703 27 219 17.7 33.8 0.00 0.00 0.00 30 998.7
20260504191803 27 222 16.1 38.6 0.00 0.00 0.00 28 998.7
20260504190903 27 220 16.1 37.0 0.00 0.00 0.00 28 998.8
20260504190003 27 221 19.3 38.6 0.00 0.00 0.00 29 998.8
20260504185424 27 223 16.1 35.4 0.00 0.00 0.00 30 998.9
20260504184503 27 223 20.9 33.8 0.00 0.00 0.00 27 998.9
20260504183604 27 220 17.7 35.4 0.00 0.00 0.00 31 998.9
20260504182703 27 217 17.7 30.6 0.00 0.00 0.00 31 998.9
20260504181824 27 218 17.7 32.2 0.00 0.00 0.00 26 998.8
20260504180903 27 214 16.1 30.6 0.00 0.00 0.00 27 998.9
20260504180003 26 216 19.3 32.2 0.00 0.00 0.00 25 998.8
20260504175424 26 221 19.3 32.2 0.00 0.00 0.00 30 998.8
20260504174503 26 222 16.1 30.6 0.00 0.00 0.00 31 999.0
20260504173603 26 214 17.7 32.2 0.00 0.00 0.00 35 999.1
20260504172724 26 222 17.7 27.4 0.00 0.00 0.00 34 999.2
20260504171803 25 227 16.1 29.0 0.00 0.00 0.00 35 999.3
20260504170903 25 218 19.3 33.8 0.00 0.00 0.00 35 999.3
20260504150925 22 225 24.1 38.6 0.00 0.00 0.00 42 1000.4
20260504140904 21 198 22.5 38.6 0.00 0.00 0.00 44 1000.8